Regional Weather Roundup
Issued by NWS

Home | Current Version | Previous Version | Text Only | Print | Product List | Glossary Off
Versions: 1 2 3 4 5 6 7 8 9 10 11 12 13 14 15 16 17 18 19 20 21 22 23 24 25 26 27 28 29 30 31 32 33 34 35 36 37 38 39 40 41 42 43 44 45 46 47 48 49 50

000
ASUS43 KBIS 200802
RWRND

NORTH DAKOTA REGIONAL WEATHER ROUNDUP
NATIONAL WEATHER SERVICE BISMARCK ND
200 AM CST MON FEB 20 2017

NOTE: "FAIR" INDICATES FEW OR NO CLOUDS BELOW 12,000 FEET WITH NO
SIGNIFICANT WEATHER AND/OR OBSTRUCTIONS TO VISIBILITY.


NDZ001>003-009>011-017-200900-
NORTHWEST NORTH DAKOTA

CITY           SKY/WX    TMP DP  RH WIND       PRES   REMARKS
WILLISTON      CLOUDY    33  32  96 W10       29.63R FOG
MINOT          CLOUDY    34  32  92 W8        29.56R FOG
MINOT AFB      CLOUDY    33  33  99 NW14      29.54F
$$

NDZ018>021-031>035-040>046-200900-
SOUTHWEST NORTH DAKOTA

CITY           SKY/WX    TMP DP  RH WIND       PRES   REMARKS
BISMARCK       LGT RAIN  38  35  89 VRB6      29.57R
DICKINSON      MOCLDY    36  33  89 NW9       29.55S
GARRISON         N/A     36  33  89 NW12      29.55R
HETTINGER ARPT PTCLDY    40  34  79 NW13      29.58R
$$

NDZ004>008-012>016-024-026-027-054-200900-
NORTHEAST NORTH DAKOTA

CITY           SKY/WX    TMP DP  RH WIND       PRES   REMARKS
GRAND FORKS    CLOUDY    41  36  82 S15       29.58S
GRND FRKS AFB  CLOUDY    39  39  99 S9        29.58S FOG
DEVILS LAKE    FOG       36  35  96 E5        29.56R VSB 1/4
$$

NDZ022-023-025-028>030-036>039-047>053-200900-
SOUTHEAST NORTH DAKOTA

CITY           SKY/WX    TMP DP  RH WIND       PRES   REMARKS
FARGO          CLOUDY    52  48  86 SE16      29.60F
JAMESTOWN      CLOUDY    43  42  97 S13       29.55R FOG
$$





USA.gov is the U.S. government's official web portal to all federal, state and local government web resources and services.